Location: Lombard
(41.8800°N, 88.0078°W)
Time: 01:50:45
(UTC-06:00)

BlueWalker 3 - Pass Details

Date: 24 January 2026
Orbit: 450 x 461 km, 53.2° (Epoch: 11 February)

Event Time Altitude Azimuth Distance (km) Brightness Sun altitude
Rises 17:23:57 0° 233° (SW) 2,447 7.3 -5.4°
Reaches altitude 10° 17:26:04 10° 235° (SW) 1,576 6.0 -5.8°
Maximum altitude 17:29:37 80° 323° (NW) 461 1.8 -6.4°
Drops below altitude 10° 17:33:11 10° 50° (NE) 1,582 3.9 -7.0°
Enters shadow 17:33:35 - 51° (NE) 1,743 4.1 -7.1°
